User: anonymous   Login
Location: Cointrin
(46.2167°N, 6.1167°E)
Time: 00:49:57
(UTC+00:00)
Language:

COSMOS 2428 - Orbit

View from above orbital plane
View from above orbital plane
View from above satellite
View from above satellite

Ground track
Ground track

The orbit data is extracted from the following two-line orbital elements,

1 31792U 07029A   23150.47514233 -.00000154  00000-0 -57411-4 0  9994
2 31792  70.9298 171.9588 0009623 262.3747  97.6281 14.12546917820855
Epoch (UTC): 30 May 2023 11:24:12
Eccentricity: 0.0009623
inclination: 70.9298°
perigee height: 844 km
apogee height: 857 km
right ascension of ascending node: 171.9588°
argument of perigee: 262.3747°
revolutions per day: 14.12546917
mean anomaly at epoch: 97.6281°
orbit number at epoch: 82085

The dashed part of the orbit path shows where the satellite is in the earth's shadow,  

DLR